Regional Weather Roundup
Issued by NWS Upton, NY

Current Version | Previous Version | Text Only | Print | Product List | Glossary On
Versions: 1 2 3 4 5 6 7 8 9 10 11 12 13 14 15 16 17 18 19 20 21 22 23 24 25 26 27 28 29 30 31 32 33 34 35 36 37 38 39 40 41 42 43 44 45 46 47 48 49 50
605 ASUS41 KOKX 081904 RWROKX REGIONAL WEATHER ROUNDUP NATIONAL WEATHER SERVICE NEW YORK NY 200 PM EST MON FEB 08 2016 NOTE: "FAIR" INDICATES FEW OR NO CLOUDS BELOW 12,000 FEET WITH NO SIGNIFICANT WEATHER AND/OR OBSTRUCTIONS TO VISIBILITY. NYZ071-072-176-178-NJZ106-104-082000- NEW YORK CITY METRO AREA CITY SKY/WX TMP DP RH WIND PRES REMARKS CENTRAL PARK CLOUDY 33 23 66 NE12G17 29.75F WCI 24 LAGUARDIA APRT CLOUDY 33 24 69 N12 29.74F WCI 24 KENNEDY INTL CLOUDY 31 24 75 N17G29 29.74F WCI 19 NEWARK/LIBERTY CLOUDY 36 22 56 NE13 29.73F WCI 27 BRNX BOT. GARD N/A 32 25 74 NW3 29.73F TETERBORO CLOUDY 35 20 54 N13 29.73F WCI 26 $$ NYZ177-179-078>081-082000- LONG ISLAND NEW YORK CITY SKY/WX TMP DP RH WIND PRES REMARKS FARMINGDALE LGT SNOW 28 23 81 N20G28 29.72F VSB 1 WCI 15 ISLIP LGT SNOW 27 22 81 N16 29.69F VSB 1 WCI 15 SHIRLEY LGT SNOW 25 22 88 N20G26 29.71S VSB 3/4 WCI 11 RIVERHEAD N/A 27 23 86 E9 29.68S WCI 17 WESTHAMPTON N/A N/A N/A N/A MISG 29.69F EAST HAMPTON LGT SNOW 25 21 87 N20G29 29.67F WCI 10 MONTAUK POINT N/A 26 23 88 N16G28 29.67S WCI 14 $$ NYZ052-065-067-082000- HUDSON VALLEY CITY SKY/WX TMP DP RH WIND PRES REMARKS WHITE PLAINS LGT SNOW 28 22 78 N15 29.71F WCI 16 NEWBURGH PTSUNNY 34 12 40 NE12 29.73F WCI 25 MONTGOMERY CLOUDY 35 11 36 NE15 29.72F WCI 25 POUGHKEEPSIE CLOUDY 34 14 43 NE14 29.76F WCI 25 ALBANY CLOUDY 34 2 25 N7 29.79F WCI 28 $$ NJZ001-105-106-008-010-013-015-019>022-104-082000- NEW JERSEY CITY SKY/WX TMP DP RH WIND PRES REMARKS NEWARK/LIBERTY CLOUDY 36 22 56 NE13 29.73F WCI 27 TETERBORO CLOUDY 35 20 54 N13 29.73F WCI 26 CALDWELL CLOUDY 37 16 42 VRB6 29.73F WCI 32 MORRISTOWN CLOUDY 37 19 48 NE10 29.72F WCI 30 SOMERVILLE CLOUDY 41 21 44 VRB6G18 29.69F SUSSEX CLOUDY 35 16 45 NE12G17 29.71F WCI 27 ANDOVER N/A 36 14 40 NE9G17 29.70F WCI 29 TRENTON CLOUDY 41 25 53 MISG 29.70F MILLVILLE NOT AVBL ATLANTIC CITY PTSUNNY 41 27 57 NE13 29.70R WRIGHTSTOWN CLOUDY 39 30 69 N10 29.68F WCI 33 TOMS RIVER PTSUNNY 37 25 60 N16G22 29.70F WCI 28 BELMAR CLOUDY 34 21 60 NE15G23 29.71F WCI 24 $$ PAZ047>061-062-071-082000- EASTERN PENNSYLVANIA CITY SKY/WX TMP DP RH WIND PRES REMARKS PHILADELPHIA CLOUDY 42 25 50 E9 29.72S ALLENTOWN MOSUNNY 43 24 47 E12 29.70F SCRANTON MOSUNNY 39 22 50 E7 29.65F WCI 34 $$ CTZ002-004>006-009-010-012-RIZ004-006-007-MAZ004-011-015-082000- SOUTHERN NEW ENGLAND IN CT CITY SKY/WX TMP DP RH WIND PRES REMARKS BRADLEY INTL LGT SNOW 22 17 81 N14G25 29.74F VSB 3/4 WCI 9 HARTFORD SNOW 23 19 85 N14G20 29.75F VSB 1/2 WCI 11 DANBURY LGT SNOW 26 19 74 N13G18 29.74F VSB 1 WCI 15 WTRBRY/OXFORD LGT SNOW 23 12 63 N14G23 29.71F VSB 1 WCI 11 BRIDGEPORT SNOW 26 22 84 N12 29.74F VSB 1/2 WCI 16 MERIDEN SNOW 24 18 77 N10G21 29.74F VSB 1/2 WCI 14 NEW HAVEN SNOW 23 20 88 N14 29.72F VSB 1/2 WCI 11 CHESTER LGT SNOW 23 19 86 N18G24 29.68F WCI 9 GROTON CLOUDY 23 18 81 N20G31 29.67F HAZE WCI 8 WILLIMANTIC LGT SNOW 24 18 77 N12 29.72F VSB 1 WCI 13 IN RI CITY SKY/WX TMP DP RH WIND PRES REMARKS PROVIDENCE HVY SNOW 21 17 84 N21G31 29.68F VSB 1/4 WCI 5 BLOCK ISLAND CLOUDY 25 19 80 N22G37 29.61S WCI 10 WESTERLY SNOW 23 19 85 N20G28 29.67S VSB 1/2 WCI 8 IN MA CITY SKY/WX TMP DP RH WIND PRES REMARKS BOSTON SNOW 20 15 81 N20G28 29.73F VSB 1/2 WCI 4 WORCESTER LGT SNOW 18 13 80 N14G25 29.67F VSB 1 WCI 4 WESTFIELD LGT SNOW 22 18 85 N14 29.76F VSB 3/4 WCI 9 PROVINCETOWN SNOW 31 29 92 NE35G41 29.61F VSB 1/2 WCI 15 NANTUCKET BLWGSNOW 32 30 92 N39G53 29.48F VSB 1/4 WCI 16 $$ ANZ330-335-338-340-345-350-353-355-082000- COASTAL MARINE OBSERVATIONS STATION/POSITION TIME SKY/WX TEMP WIND PRES VSBY WAVE AIR SEA DIR/SP/G HT/PER (UTC) (F) (DEG/KT/KT) (MB) (MI) (FT/S) NY HARB ENTRANCE 1750 31 44 360/ 21/ 29 1006.2 12/12 4S FIRE IS NOT AVBL 20S FIRE ISLAND 1750 30 45 360/ 27/ 33 1004.7 14/11 GREAT SOUTH BAY NOT AVBL 23SW MTP 1850 29 45 360/ 27/ 33 1002.5 14/11 HUDSON CANYON 1750 37 50 1001.6 22/13 KINGS POINT 1800 29 39 40/ 16/ 19 1007.1 EXECUTION ROCKS NOT AVBL CENTRAL LI SOUND 1800 26 350/ 21/ 25 N/A 3/ 4 EASTERN LI SOUND 1815 25 42 360/ 19/ 29 N/A ROBBINS REEF 1800 32 10/ 16/ 19 1006.5 $$ >>>>>>>>>>>>>>>>>>>>>>>>>>>> KEY <<<<<<<<<<<<<<<<<<<<<<<<<<< > < > SKY/WX - SKY CONDITION/PRESENT WEATHER < > TMP - TEMPERATURE IN FAHRENHEIT < > DP - DEWPOINT IN FAHRENHEIT < > RH - RELATIVE HUMIDITY IN PERCENT < > WIND - DIRECTION AND SPEED IN MPH < > PRES - MEAN SEA LEVEL PRESSURE IN INCHES OF HG < > WCI - WIND CHILL INDEX < > VSB - VISIBILITY IN MILES < > HX - HEAT INDEX < > TC - TEMPERATURE IN CELSIUS < > VRB - VARIABLE WIND DIRECTION < > < >>>>>>>>>>>>>>>>>>>>>>>>>>>> KEY <<<<<<<<<<<<<<<<<<<<<<<<<<<

USA.gov is the U.S. government's official web portal to all federal, state and local government web resources and services.